Date,TemperatureHighF,TemperatureAvgF,TemperatureLowF,DewpointHighF,DewpointAvgF,DewpointLowF,HumidityHigh,HumidityAvg,HumidityLow,PressureMaxIn,PressureMinIn,WindSpeedMaxMPH,WindSpeedAvgMPH,GustSpeedMaxMPH,PrecipitationSumIn
2013-1-1,37.9,33.4,22.5,28.0,22.3,9.0,77,64,52,29.90,29.72,12,4,18,0.06
2013-1-2,26.9,22.7,16.7,15.0,11.6,9.0,74,63,53,30.05,29.89,8,3,13,0.00
2013-1-3,26.3,18.9,10.1,14.0,4.6,-4.0,78,55,31,30.11,29.98,11,3,17,0.00
2013-1-4,37.2,29.0,15.9,26.0,20.9,13.0,92,73,60,29.98,29.82,12,3,24,0.01
2013-1-5,42.5,32.9,22.4,25.0,22.3,20.0,91,67,46,30.21,29.86,12,3,17,0.00
2013-1-6,41.9,32.3,23.6,35.0,28.7,21.0,95,87,67,30.18,29.90,11,1,18,0.05
2013-1-7,42.2,31.6,20.4,31.0,24.7,18.0,95,78,47,30.36,29.94,7,1,14,0.00
2013-1-8,46.3,35.0,18.9,35.0,30.0,17.0,96,83,60,30.37,30.27,16,3,24,0.01
2013-1-9,46.1,36.3,24.3,41.0,33.2,23.0,97,89,70,30.34,30.02,10,2,19,0.01
2013-1-10,46.0,40.3,29.7,36.0,26.8,24.0,81,60,44,30.47,30.07,9,3,20,0.00
2013-1-11,42.5,34.0,24.5,42.0,30.3,22.0,96,86,75,30.46,30.13,5,1,9,0.18
2013-1-12,44.7,42.5,40.5,44.0,41.8,40.0,97,97,96,30.13,30.06,8,2,10,0.05
2013-1-13,51.3,45.4,40.9,50.0,44.6,40.0,98,97,94,30.12,29.99,5,1,13,0.01
2013-1-14,59.3,49.8,37.9,55.0,45.1,32.0,98,85,59,30.20,29.91,6,2,14,0.05
2013-1-15,40.2,36.7,34.6,35.0,32.5,30.0,96,85,70,30.26,30.16,4,1,8,0.21
2013-1-16,36.0,33.7,32.2,34.0,32.6,30.0,97,96,78,30.18,29.71,7,2,10,0.31
2013-1-17,42.4,36.6,32.5,34.0,29.5,22.0,97,77,60,30.03,29.82,9,2,18,0.13
2013-1-18,33.0,24.4,15.4,24.0,8.6,-2.0,90,54,30,30.45,29.96,12,3,21,0.00
2013-1-19,46.9,39.2,15.6,37.0,30.5,13.0,92,72,59,30.39,29.90,19,6,29,0.00
2013-1-20,52.9,44.2,29.8,39.0,31.1,12.0,83,62,32,29.90,29.59,14,6,32,0.00
2013-1-21,29.7,26.6,21.6,26.0,16.1,9.0,94,67,44,30.06,29.73,6,1,15,0.00
2013-1-22,25.4,20.2,11.8,24.0,7.0,-4.0,95,61,33,30.06,29.72,15,3,24,0.01
2013-1-23,17.3,12.0,6.2,-2.0,-4.4,-7.0,63,48,38,30.14,30.04,11,3,21,0.00
2013-1-24,20.4,11.9,2.5,0.0,-5.8,-8.0,66,47,31,30.23,30.05,15,4,22,0.00
2013-1-25,24.2,17.2,10.0,15.0,0.6,-4.0,89,50,32,30.29,29.99,8,2,16,0.00
2013-1-26,25.5,17.8,8.8,15.0,6.9,1.0,91,65,40,30.22,29.95,12,3,16,0.00
2013-1-27,31.5,20.8,6.1,9.0,3.7,2.0,87,51,30,30.42,30.23,11,2,18,0.00
2013-1-28,33.5,25.1,12.3,32.0,19.4,6.0,96,80,38,30.41,29.94,6,0,10,0.07
2013-1-29,37.1,33.6,30.3,34.0,31.9,29.0,96,93,88,30.14,29.94,5,1,8,0.07
2013-1-30,54.9,49.1,34.0,54.0,48.2,33.0,97,96,95,30.10,29.47,17,4,23,0.00
2013-1-31,55.9,46.8,31.3,55.0,36.0,12.0,97,69,38,29.61,29.02,22,8,33,0.69
2013-2-1,31.7,28.0,20.9,17.0,10.6,5.0,58,48,37,30.09,29.61,13,5,22,0.00
2013-2-2,29.5,24.3,15.0,22.0,12.6,7.0,86,61,49,30.23,30.01,14,4,19,0.00
2013-2-3,33.2,26.1,18.5,22.0,18.6,16.0,90,74,55,30.01,29.68,4,1,10,0.00
2013-2-4,30.4,24.7,17.2,17.0,10.8,6.0,86,58,40,29.92,29.70,14,3,24,0.00
2013-2-5,26.0,24.3,21.9,24.0,18.5,6.0,92,79,48,29.97,29.87,6,2,8,0.00
2013-2-6,38.5,31.1,26.1,28.0,21.0,3.0,93,69,35,30.27,29.86,11,2,17,0.02
2013-2-7,31.6,25.8,18.3,17.0,9.6,4.0,67,51,38,30.46,30.26,7,1,10,0.00
2013-2-8,32.9,30.8,24.8,31.0,28.2,16.0,97,91,70,30.40,29.35,11,6,22,0.08
2013-2-12,38.3,35.2,30.4,28.0,27.4,26.0,85,74,66,29.86,29.80,4,1,8,0.01
2013-2-13,41.5,33.3,24.4,28.0,25.8,21.0,89,75,56,29.86,29.61,7,1,13,0.00
2013-2-14,43.3,33.3,26.3,31.0,27.0,23.0,95,80,47,29.97,29.65,8,1,17,0.16
2013-2-15,47.3,35.9,24.6,39.0,32.8,23.0,97,89,73,29.99,29.89,7,1,17,0.01
2013-2-16,35.7,32.6,28.8,33.0,30.6,26.0,97,92,83,29.90,29.61,8,2,14,0.02
2013-2-17,29.3,23.1,16.7,26.0,12.0,2.0,94,66,39,29.69,29.38,23,8,36,0.00
2013-2-18,31.9,23.1,16.0,11.0,2.9,0.0,66,43,26,30.16,29.70,20,6,33,0.00
2013-2-19,47.2,35.7,16.8,45.0,30.6,8.0,96,82,58,30.16,29.56,11,2,17,0.58
2013-2-20,41.9,32.5,25.4,41.0,20.6,10.0,96,63,42,29.79,29.54,16,6,23,0.01
2013-2-21,32.9,27.0,22.4,16.0,14.4,13.0,70,60,49,30.14,29.78,16,6,26,0.00
2013-2-22,38.1,31.2,24.2,27.0,22.8,17.0,84,71,59,30.32,30.16,11,2,15,0.00
2013-2-23,37.7,34.7,30.7,34.0,31.6,26.0,96,88,81,30.27,29.76,10,4,16,0.17
2013-2-24,38.8,36.1,32.1,38.0,34.7,31.0,96,94,88,29.83,29.59,13,4,19,0.13
2013-2-25,40.4,35.1,31.9,33.0,31.5,30.0,96,87,68,30.20,29.84,11,1,13,0.01
2013-2-26,40.0,35.6,31.4,34.0,30.9,27.0,95,83,62,30.28,30.04,12,3,15,0.00
2013-2-27,42.8,41.1,37.4,42.0,40.1,35.0,97,96,90,30.04,29.52,26,8,30,0.91
2013-2-28,46.8,38.8,35.2,42.0,37.5,35.0,97,95,83,29.59,29.47,5,0,6,0.06
2013-3-1,48.1,39.4,31.2,36.0,30.5,27.0,97,73,48,29.64,29.48,9,2,15,0.01
2013-3-2,39.1,36.4,29.7,29.0,27.4,25.0,84,70,63,29.66,29.58,10,2,15,0.00
2013-3-3,40.9,34.8,30.4,29.0,26.8,24.0,89,73,58,29.60,29.52,9,2,15,0.00
2013-3-4,40.4,33.3,28.1,27.0,23.1,21.0,89,67,53,29.71,29.56,14,6,28,0.00
2013-3-5,44.6,35.8,29.1,32.0,26.9,22.0,92,71,56,30.01,29.71,10,3,15,0.00
2013-3-6,40.9,36.6,27.9,36.0,33.2,26.0,94,88,72,29.98,29.84,25,10,34,0.01
2013-3-7,36.6,34.3,32.1,33.0,31.1,28.0,94,88,82,29.90,29.81,27,14,39,0.02
2013-3-8,40.9,34.1,30.4,33.0,28.8,23.0,94,82,51,30.04,29.84,19,9,31,0.01
2013-3-9,48.8,39.7,30.5,30.0,24.7,21.0,90,57,38,30.27,30.04,18,7,22,0.00
2013-3-10,44.2,34.5,27.5,35.0,30.4,26.0,96,86,65,30.34,30.28,8,2,12,0.00
2013-3-11,47.5,40.9,32.6,42.0,38.2,31.0,96,90,82,30.29,30.12,6,1,8,0.00
2013-3-12,51.8,48.2,42.0,51.0,46.9,41.0,97,95,92,30.11,29.70,12,5,22,0.76
2013-3-13,51.9,43.2,29.9,49.0,31.8,23.0,97,67,36,29.75,29.67,11,4,19,0.03
2013-3-14,34.9,31.3,26.7,28.0,19.5,11.0,91,63,40,29.82,29.70,16,4,25,0.00
2013-3-15,41.0,32.8,25.7,29.0,17.2,7.0,76,54,36,29.85,29.64,16,5,27,0.00
2013-3-16,39.5,34.4,28.2,28.0,20.9,12.0,81,60,33,29.82,29.67,13,2,17,0.00
2013-3-17,38.5,32.4,26.9,28.0,14.7,6.0,86,52,26,30.25,29.82,14,3,19,0.00
2013-3-18,33.5,28.7,21.1,30.0,14.8,3.0,94,58,34,30.39,30.13,10,4,15,0.00
2013-3-19,39.2,35.1,30.7,38.0,33.8,30.0,96,95,92,30.11,29.50,14,7,21,0.55
2013-3-20,42.4,33.8,28.3,30.0,23.3,19.0,95,68,41,29.77,29.65,17,4,25,0.00
2013-3-21,38.2,32.7,27.4,31.0,26.3,22.0,93,78,60,29.77,29.55,8,2,16,0.00
2013-3-22,40.6,33.9,26.0,28.0,18.5,14.0,90,54,39,29.74,29.58,13,4,20,0.00
2013-3-23,44.4,36.7,29.0,25.0,21.0,17.0,78,55,34,29.79,29.64,22,6,28,0.00
2013-3-24,47.2,37.2,29.0,32.0,24.6,20.0,89,62,40,29.82,29.67,14,2,15,0.00
2013-3-25,42.7,36.8,30.3,34.0,30.1,27.0,94,78,54,29.71,29.40,17,6,25,0.07
2013-3-26,45.6,37.9,28.6,33.0,29.0,25.0,94,72,50,29.76,29.44,10,2,13,0.02
2013-3-27,52.7,41.7,26.0,30.0,25.9,22.0,94,58,30,29.82,29.71,11,2,20,0.00
2013-3-28,47.4,40.6,36.2,36.0,32.8,30.0,91,74,53,29.99,29.81,12,2,17,0.00
2013-3-29,57.1,47.2,36.5,36.0,32.2,29.0,93,59,35,30.02,29.93,9,2,21,0.00
2013-3-30,56.7,46.3,36.2,32.0,27.5,16.0,84,51,22,30.06,29.97,11,2,17,0.00
2013-3-31,54.5,42.0,27.7,44.0,35.5,25.0,95,79,48,30.08,29.64,12,2,18,0.18
2013-4-1,54.9,46.4,35.5,46.0,40.4,19.0,96,80,50,29.78,29.53,15,5,28,0.03
2013-4-2,43.1,35.2,26.5,20.0,14.0,8.0,76,44,26,29.95,29.79,15,4,28,0.00
2013-4-3,45.3,36.5,28.6,17.0,13.5,11.0,55,40,26,30.16,29.94,17,6,26,0.00
2013-4-4,48.1,37.8,28.2,34.0,22.7,13.0,84,56,31,30.30,30.06,13,4,18,0.00
2013-4-5,56.2,45.4,38.8,41.0,33.2,16.0,86,66,24,30.06,29.60,15,3,21,0.00
2013-4-6,47.3,39.6,30.2,29.0,18.4,8.0,87,46,20,30.29,29.84,11,4,24,0.00
2013-4-7,49.9,40.7,25.4,43.0,35.1,24.0,95,81,52,30.29,30.01,12,3,16,0.00
2013-4-8,63.4,50.7,42.9,46.0,43.4,41.0,96,79,44,30.06,29.93,8,2,13,0.00
2013-4-9,77.6,58.3,45.0,55.0,46.3,42.0,97,71,32,30.04,29.80,23,3,23,0.03
2013-4-10,63.2,50.2,43.4,52.0,45.8,42.0,96,86,65,29.93,29.81,10,3,22,0.17
2013-4-11,51.9,47.5,43.8,48.0,44.0,37.0,97,88,71,30.06,29.75,11,3,15,0.02
2013-4-12,44.8,41.3,38.4,39.0,36.2,31.0,95,83,61,30.07,29.68,21,9,26,0.54
2013-4-13,55.1,44.9,38.4,39.0,37.1,34.0,94,76,46,29.91,29.63,18,5,23,0.01
2013-4-14,55.0,46.8,34.7,41.0,34.3,26.0,93,65,39,30.18,29.89,13,3,21,0.00
2013-4-15,51.2,42.9,34.1,40.0,33.9,27.0,94,72,52,30.36,30.17,5,1,9,0.00
2013-4-16,55.3,46.8,34.0,49.0,42.9,33.0,97,86,71,30.37,30.11,14,3,19,0.01
2013-4-17,65.4,53.9,39.1,51.0,44.8,37.0,95,74,37,30.28,30.06,8,2,15,0.02
2013-4-18,55.7,46.9,33.9,48.0,38.8,33.0,96,76,45,30.36,30.11,10,3,14,0.00
2013-4-19,62.7,55.4,50.3,59.0,54.2,48.0,97,96,87,30.11,29.69,13,4,22,0.03
2013-4-20,58.6,52.0,45.0,58.0,43.6,30.0,98,76,39,30.17,29.63,14,4,24,0.49
2013-4-21,50.6,41.8,33.5,33.0,26.5,21.0,92,56,35,30.62,30.18,11,3,19,0.00
2013-4-22,49.2,41.4,31.4,37.0,32.7,29.0,94,73,48,30.65,30.50,21,6,23,0.00
2013-4-23,44.9,42.5,39.9,43.0,39.8,34.0,95,90,77,30.49,29.99,18,9,25,0.00
2013-4-24,64.8,50.3,42.8,48.0,44.1,40.0,96,81,50,29.97,29.85,20,5,30,0.00
2013-4-25,64.3,52.7,39.6,50.0,38.1,20.0,97,64,19,30.22,29.85,10,3,19,0.03
2013-4-26,58.4,47.9,34.6,44.0,38.1,29.0,92,71,45,30.36,30.22,12,2,12,0.00
2013-4-27,55.8,46.7,37.7,45.0,40.0,37.0,96,79,54,30.36,30.28,12,2,14,0.00
2013-4-28,61.0,48.9,34.4,48.0,38.2,16.0,97,73,20,30.30,30.22,5,1,10,0.00
2013-4-29,60.0,51.4,43.0,48.0,40.6,33.0,97,70,36,30.24,30.19,6,1,10,0.00
2013-4-30,61.0,51.2,38.5,43.0,35.1,27.0,96,59,29,30.32,30.20,7,2,12,0.00
2013-5-1,62.2,49.2,35.9,49.0,41.6,31.0,94,76,54,30.43,30.31,11,2,15,0.00
2013-5-2,67.2,53.5,35.7,48.0,41.4,34.0,97,68,33,30.42,30.30,8,2,15,0.00
2013-5-3,58.8,51.5,44.0,47.0,42.5,39.0,88,72,62,30.42,30.31,15,6,24,0.00
2013-5-4,59.8,49.7,38.4,45.0,40.5,36.0,94,73,42,30.31,30.22,17,4,18,0.00
2013-5-5,55.6,46.9,36.6,46.0,41.6,35.0,96,83,63,30.26,30.20,11,3,15,0.00
2013-5-6,64.3,51.7,45.0,51.0,45.7,42.0,96,81,63,30.24,30.12,5,2,9,0.00
2013-5-7,68.0,56.2,43.5,60.0,52.8,43.0,97,89,65,30.14,30.09,7,2,11,0.00
2013-5-8,65.5,58.9,53.8,62.0,57.4,53.0,97,95,87,30.12,30.00,13,4,21,0.03
2013-5-9,64.2,57.5,54.7,61.0,56.4,54.0,98,96,83,29.99,29.83,8,1,9,0.39
2013-5-10,76.9,63.7,54.8,60.0,55.9,54.0,97,79,49,29.92,29.86,13,2,17,0.00
2013-5-11,63.8,57.9,54.4,60.0,56.7,53.0,97,95,83,29.90,29.67,9,2,19,1.00
2013-5-12,69.4,59.5,50.6,61.0,51.9,35.0,98,79,42,29.80,29.57,14,2,18,0.04
2013-5-13,57.8,50.1,39.9,36.0,32.7,28.0,75,53,33,29.99,29.80,13,2,22,0.00
2013-5-14,57.1,46.9,36.0,40.0,33.9,30.0,93,63,38,30.03,29.95,6,1,15,0.00
2013-5-15,60.7,48.9,34.3,53.0,44.4,33.0,97,86,48,30.04,29.66,10,1,14,0.01
2013-5-16,74.6,60.8,46.8,55.0,50.0,46.0,97,71,41,29.76,29.64,8,2,18,0.00
2013-5-17,68.1,57.6,47.7,50.0,46.5,42.0,93,69,41,30.18,29.75,12,1,14,0.00
2013-5-18,70.2,56.1,39.3,52.0,47.5,38.0,96,76,41,30.27,30.18,5,1,13,0.00
2013-5-19,64.9,55.2,45.5,55.0,51.1,44.0,97,87,63,30.32,30.19,5,1,9,0.32
2013-5-20,75.1,63.1,55.9,66.0,60.2,55.0,97,91,72,30.18,29.91,6,1,14,0.14
2013-5-21,80.7,66.7,56.2,70.0,62.4,55.0,97,87,66,29.93,29.81,8,1,14,0.00
2013-5-22,73.5,60.0,52.8,66.0,57.3,52.0,96,91,74,29.92,29.84,11,1,15,0.00
2013-5-23,66.7,61.9,59.7,64.0,60.8,59.0,97,96,91,29.91,29.80,7,2,15,0.12
2013-5-24,67.6,59.9,49.5,65.0,58.7,48.0,98,95,87,29.80,29.64,9,1,15,0.67
2013-5-25,51.0,47.4,42.4,50.0,46.1,40.0,97,95,89,29.76,29.68,10,2,22,0.20
2013-5-26,59.2,49.4,41.9,47.0,42.9,40.0,95,80,57,30.11,29.75,10,3,25,0.04
2013-5-27,70.6,55.7,39.6,47.0,42.4,37.0,96,66,31,30.15,30.06,9,2,21,0.01
2013-5-28,70.1,55.9,40.4,56.0,49.3,39.0,97,81,47,30.20,30.14,2,0,7,0.01
2013-5-29,71.6,61.2,56.4,66.0,58.9,55.0,97,92,79,30.15,29.98,4,1,11,0.34
2013-5-30,87.3,71.6,57.2,74.0,65.0,56.0,97,82,56,30.07,29.99,5,0,10,0.09
2013-5-31,88.7,75.2,60.4,73.0,65.9,59.0,97,75,52,30.06,29.95,5,1,12,0.00
2013-6-1,83.7,70.2,59.5,70.0,64.2,58.0,96,83,62,29.97,29.89,9,1,14,0.00
2013-6-2,75.5,66.3,60.8,67.0,62.8,60.0,97,88,74,29.90,29.79,10,2,17,0.00
2013-6-3,67.5,63.5,60.7,67.0,62.7,60.0,97,96,94,29.82,29.75,7,1,14,0.09
2013-6-4,72.9,61.3,51.7,62.0,47.3,40.0,97,62,42,30.03,29.78,9,2,16,0.02
2013-6-5,69.9,59.5,48.7,53.0,49.6,46.0,95,73,44,30.15,30.03,5,0,8,0.04
2013-6-6,69.1,59.0,47.2,60.0,54.3,46.0,97,85,65,30.15,30.04,5,1,9,0.00
2013-6-7,59.0,58.1,56.1,58.0,56.7,54.0,97,95,85,30.03,29.68,8,2,11,0.74
2013-6-8,73.9,64.6,56.2,66.0,61.2,55.0,98,89,70,29.97,29.49,9,2,18,2.11
2013-6-9,77.4,67.4,56.4,63.0,59.2,56.0,97,77,55,30.13,29.97,8,1,13,0.00
2013-6-10,71.8,62.4,55.5,63.0,58.7,54.0,97,88,69,30.14,29.90,6,1,13,1.03
2013-6-11,76.7,66.2,59.4,70.0,64.2,59.0,97,93,77,29.89,29.53,6,1,11,0.84
2013-6-12,70.9,63.9,55.8,63.0,56.5,54.0,97,78,57,29.78,29.56,12,2,21,0.01
2013-6-13,62.2,56.6,49.9,60.0,54.8,49.0,97,93,85,29.78,29.50,8,1,12,0.39
2013-6-14,69.7,58.7,53.0,58.0,53.5,50.0,97,84,61,29.74,29.48,13,3,21,0.55
2013-6-15,78.8,66.5,55.2,56.0,53.2,46.0,95,67,33,29.92,29.75,6,1,13,0.00
2013-6-16,75.6,63.6,50.4,64.0,58.2,49.0,97,84,55,29.92,29.72,7,0,19,0.00
2013-6-17,82.4,70.0,60.4,68.0,64.0,59.0,97,83,57,29.88,29.77,8,1,16,0.02
2013-6-18,78.3,65.9,57.1,67.0,61.4,56.0,97,86,61,29.87,29.79,9,1,11,0.13
2013-6-19,74.7,63.5,56.3,59.0,56.4,52.0,96,79,48,30.11,29.81,6,1,11,0.02
2013-6-20,77.5,64.3,51.6,60.0,55.3,49.0,97,76,38,30.24,30.11,5,1,10,0.01
2013-6-21,76.9,66.1,56.2,64.0,57.7,55.0,97,76,55,30.25,30.19,8,1,14,0.00
2013-6-22,79.4,66.7,55.7,65.0,60.1,54.0,96,81,55,30.21,30.12,6,1,13,0.00
2013-6-23,82.2,71.7,62.5,70.0,66.7,62.0,97,85,65,30.15,30.03,9,2,15,0.00
2013-6-24,89.7,78.1,68.8,78.0,71.2,65.0,97,81,60,30.02,29.86,7,2,13,0.00
2013-6-25,89.3,75.1,65.1,74.0,68.5,63.0,95,81,56,29.91,29.72,10,1,11,0.00
2013-6-26,86.2,76.0,67.0,75.0,70.4,66.0,96,84,66,29.79,29.70,9,1,14,0.00
2013-6-27,71.9,69.8,67.5,70.0,68.5,67.0,97,95,91,29.78,29.67,3,1,5,0.00
2013-6-28,71.9,68.9,67.6,71.0,68.2,67.0,98,97,94,29.66,29.50,7,1,14,0.44
2013-6-29,76.1,70.2,67.9,72.0,68.8,67.0,98,95,82,29.70,29.47,8,1,14,0.04
2013-6-30,74.6,70.0,67.1,72.0,68.6,67.0,98,95,83,29.91,29.70,12,1,13,0.07
2013-7-1,74.1,70.5,68.4,73.0,69.6,68.0,98,97,93,30.06,29.91,6,1,12,0.03
2013-7-2,78.0,71.8,69.4,75.0,70.5,69.0,98,95,88,30.16,30.06,5,1,12,0.01
2013-7-3,83.3,74.5,68.8,75.0,71.5,68.0,98,90,76,30.20,30.14,5,1,12,0.00
2013-7-4,86.9,77.5,71.6,78.0,73.7,71.0,97,88,74,30.19,30.10,11,2,20,0.00
2013-7-5,88.5,78.6,71.8,79.0,73.6,70.0,95,85,68,30.14,30.05,6,1,12,0.00
2013-7-6,89.3,79.2,70.6,80.0,74.1,70.0,97,85,67,30.06,29.94,7,1,11,0.00
2013-7-7,90.5,79.7,71.0,79.0,73.8,70.0,97,83,60,29.98,29.88,4,0,11,0.00
2013-7-8,87.5,77.7,69.8,76.0,71.6,69.0,97,83,60,29.98,29.88,7,1,14,0.00
2013-7-9,82.1,72.6,68.6,74.0,70.5,68.0,97,93,74,30.04,29.96,3,0,6,0.03
2013-7-10,80.0,74.0,71.7,75.0,72.3,71.0,97,95,83,30.00,29.78,4,1,16,0.04
2013-7-11,77.4,72.9,69.5,74.0,71.6,69.0,98,95,88,29.86,29.76,3,0,14,0.08
2013-7-12,75.2,71.1,68.1,70.0,67.4,64.0,97,88,78,30.11,29.85,5,2,12,0.00
2013-7-13,75.5,70.6,67.0,74.0,69.7,66.0,98,97,92,30.26,30.11,2,0,6,0.08
2013-7-14,89.2,78.2,70.9,79.0,74.0,70.0,98,87,68,30.27,30.16,8,1,12,0.01
2013-7-15,91.9,80.4,71.3,77.0,73.6,70.0,98,82,54,30.16,30.05,4,0,7,0.00
2013-7-16,92.8,81.1,70.7,76.0,71.9,69.0,96,76,50,30.11,30.04,5,0,8,0.00
2013-7-17,87.8,78.0,69.1,75.0,71.2,68.0,97,81,55,30.14,30.00,5,0,8,0.00
2013-7-18,95.1,81.5,72.1,79.0,74.2,71.0,96,80,50,30.00,29.90,3,0,8,0.00
2013-7-19,92.0,81.4,73.3,81.0,75.9,72.0,97,84,63,29.91,29.74,13,2,16,0.00
2013-7-20,88.9,80.6,73.4,77.0,74.9,71.0,95,83,67,29.77,29.64,9,2,19,0.00
2013-7-21,82.4,72.8,66.5,71.0,67.5,63.0,96,84,64,29.93,29.77,2,0,7,0.26
2013-7-22,78.8,72.3,66.4,72.0,69.3,65.0,97,90,74,29.94,29.82,4,1,7,0.01
2013-7-23,83.1,75.4,70.8,77.0,73.0,70.0,98,92,79,29.81,29.51,8,1,16,0.01
2013-7-24,85.5,75.5,69.3,76.0,70.9,66.0,97,86,63,29.84,29.54,5,0,11,0.48
2013-7-25,71.2,63.5,58.5,65.0,59.3,55.0,95,86,71,30.00,29.85,7,2,17,0.10
2013-7-26,71.6,64.8,60.6,68.0,63.1,59.0,97,94,87,29.99,29.88,7,2,19,0.13
2013-7-27,80.5,71.3,63.7,71.0,67.6,63.0,98,88,70,30.02,29.94,5,0,9,0.01
2013-7-28,81.7,72.2,66.3,74.0,69.2,65.0,97,91,73,29.96,29.90,5,0,15,0.01
2013-7-29,80.6,73.2,66.4,75.0,70.6,65.0,97,91,79,30.00,29.92,5,0,10,0.00
2013-7-30,81.5,70.6,59.8,66.0,61.8,58.0,96,76,50,30.06,29.99,7,1,13,0.01
2013-7-31,80.0,69.0,56.2,66.0,61.8,55.0,97,80,54,30.09,30.01,5,0,11,0.00
2013-8-1,78.5,68.3,60.0,69.0,63.7,59.0,97,86,63,30.01,29.84,3,0,9,0.06
2013-8-2,82.5,72.3,65.0,70.0,66.5,64.0,97,83,57,29.84,29.74,8,1,14,0.37
2013-8-3,75.7,68.7,62.8,68.0,65.7,61.0,96,90,76,29.85,29.76,6,1,12,0.03
2013-8-4,80.8,68.5,57.5,63.0,59.0,56.0,96,74,49,29.85,29.74,6,1,13,0.00
2013-8-5,76.3,64.0,53.8,57.0,53.3,49.0,94,71,39,29.99,29.85,7,1,12,0.00
2013-8-6,76.7,64.1,49.6,62.0,54.4,49.0,96,75,38,30.10,30.00,5,0,7,0.00
2013-8-7,75.2,64.9,53.3,65.0,58.3,52.0,97,81,50,30.14,30.09,3,0,8,0.00
2013-8-8,75.1,70.7,65.5,71.0,68.0,63.0,96,91,84,30.09,30.00,8,1,12,0.08
2013-8-9,72.6,71.5,69.7,72.0,70.5,69.0,97,96,95,30.01,29.76,7,1,18,0.87
2013-8-10,82.2,73.2,62.3,72.0,66.7,59.0,97,81,59,29.98,29.77,8,1,13,0.01
2013-8-11,78.2,66.7,53.9,61.0,57.0,51.0,94,73,47,30.05,29.98,6,1,10,0.00
2013-8-12,78.0,68.0,58.3,71.0,64.4,57.0,96,89,72,30.00,29.89,4,0,8,0.00
2013-8-13,70.0,65.3,60.8,69.0,64.3,60.0,97,96,93,29.89,29.65,3,0,5,0.14
2013-8-14,73.4,65.2,57.7,64.0,57.2,54.0,97,77,54,29.94,29.64,8,1,17,0.01
2013-8-15,76.2,63.8,52.0,60.0,54.6,47.0,96,75,41,30.09,29.94,7,1,10,0.00
2013-8-16,77.9,66.2,52.6,64.0,58.2,51.0,96,78,47,30.16,30.08,6,0,10,0.00
2013-8-17,80.9,67.1,55.0,63.0,58.6,54.0,96,77,45,30.23,30.16,2,0,8,0.01
2013-8-18,73.9,64.6,56.2,66.0,59.9,55.0,96,85,62,30.23,30.06,1,0,2,0.01
2013-8-19,79.8,67.6,55.6,68.0,62.1,54.0,96,84,61,30.06,29.94,7,0,10,0.02
2013-8-20,85.0,71.6,61.5,66.0,63.1,60.0,96,78,43,30.07,29.96,5,0,10,0.01
2013-8-21,85.6,72.5,58.7,70.0,64.9,57.0,97,79,53,30.11,30.01,4,0,11,0.00
2013-8-22,78.2,70.0,62.6,73.0,68.0,61.0,96,93,84,30.02,29.81,5,1,12,0.05
2013-8-23,78.9,70.0,60.5,67.0,63.6,59.0,96,81,57,30.05,29.78,5,1,12,0.01
2013-8-24,75.4,64.5,52.9,59.0,53.8,46.0,95,72,37,30.30,30.06,5,1,11,0.00
2013-8-25,81.0,65.0,48.1,62.0,54.5,47.0,97,74,37,30.32,30.17,7,0,13,0.00
2013-8-26,77.1,69.4,63.1,69.0,64.2,60.0,95,84,67,30.18,29.87,9,1,17,0.18
2013-8-27,78.9,70.5,65.4,72.0,68.2,64.0,97,92,77,29.86,29.77,5,1,13,1.03
2013-8-28,81.6,70.0,64.2,73.0,67.1,63.0,97,91,70,29.88,29.81,1,0,5,0.01
2013-8-29,72.5,65.8,59.8,67.0,63.5,58.0,96,92,83,30.00,29.87,6,1,12,0.00
2013-8-30,77.6,66.1,57.0,71.0,63.4,56.0,96,91,78,29.98,29.82,5,1,11,0.00
2013-8-31,75.5,71.5,67.0,72.0,69.7,66.0,96,94,89,29.82,29.78,7,2,13,0.00
2013-9-1,76.4,72.8,70.5,73.0,71.1,69.0,96,94,90,29.84,29.78,5,0,11,0.00
2013-9-2,75.8,72.0,68.9,73.0,70.8,68.0,97,96,91,29.82,29.67,2,0,10,0.29
2013-9-3,73.8,69.4,62.3,72.0,68.5,62.0,97,97,93,29.79,29.65,3,0,9,1.51
2013-9-4,77.6,65.8,56.8,64.0,60.3,56.0,97,84,54,29.90,29.79,7,1,13,0.01
2013-9-5,74.0,64.0,54.5,65.0,59.6,53.0,97,86,65,30.07,29.85,5,0,10,0.00
2013-9-6,68.4,56.7,45.1,54.0,48.5,43.0,95,77,47,30.19,30.08,4,0,9,0.01
2013-9-7,72.8,59.6,43.4,60.0,51.9,42.0,97,78,45,30.07,29.85,9,1,13,0.01
2013-9-8,77.8,66.7,54.2,66.0,57.1,42.0,95,73,44,30.04,29.72,10,1,16,0.00
2013-9-9,66.1,55.3,42.1,55.0,48.1,41.0,95,79,50,30.20,30.04,5,0,8,0.00
2013-9-10,72.6,66.0,53.6,69.0,63.6,52.0,95,92,85,30.14,29.99,11,1,19,0.03
2013-9-11,87.1,74.4,67.0,78.0,70.8,66.0,97,89,72,30.06,29.95,8,1,11,0.00
2013-9-12,76.4,71.1,67.8,73.0,69.3,67.0,96,94,88,29.96,29.65,12,2,17,0.26
2013-9-13,77.1,69.0,61.4,71.0,66.0,59.0,97,90,71,29.71,29.54,4,0,12,0.03
2013-9-14,69.0,59.7,50.9,59.0,54.3,49.0,95,83,63,30.02,29.72,5,1,10,0.00
2013-9-15,68.0,56.1,46.3,56.0,50.7,45.0,96,83,60,30.13,30.03,7,1,12,0.00
2013-9-16,69.1,57.5,50.7,59.0,54.1,45.0,97,89,66,30.17,29.98,5,0,13,0.03
2013-9-17,61.2,50.5,41.7,46.0,40.7,38.0,95,71,44,30.36,30.17,8,2,14,0.00
2013-9-18,69.9,52.6,38.5,51.0,45.0,37.0,97,79,38,30.30,30.13,5,0,8,0.01
2013-9-19,75.3,58.4,46.2,60.0,52.3,45.0,97,82,54,30.13,30.02,3,0,8,0.00
2013-9-20,75.3,59.1,44.2,63.0,54.2,43.0,97,85,58,30.05,29.98,3,0,7,0.01
2013-9-21,72.5,62.6,49.4,67.0,60.3,48.0,97,92,82,30.00,29.71,5,1,9,0.01
2013-9-22,70.6,64.0,50.0,68.0,59.0,46.0,96,84,64,29.80,29.60,7,1,18,0.38
2013-9-23,64.6,53.0,43.7,52.0,46.3,42.0,94,80,56,29.96,29.80,5,1,16,0.00
2013-9-24,66.6,51.0,39.1,53.0,45.2,38.0,95,82,52,29.97,29.79,8,1,11,0.00
2013-9-25,68.6,55.8,42.7,55.0,49.6,41.0,96,81,56,29.92,29.83,5,0,10,0.01
2013-9-26,64.0,56.0,47.4,53.0,50.2,46.0,95,82,60,30.07,29.93,5,0,8,0.00
2013-9-27,64.4,56.2,46.8,56.0,52.0,46.0,95,86,69,30.21,30.06,5,0,9,0.00
2013-9-28,71.6,57.1,45.2,59.0,51.8,44.0,97,84,57,30.27,30.20,5,1,8,0.01
2013-9-29,64.7,53.9,44.0,55.0,49.9,43.0,97,87,64,30.21,30.06,5,0,8,0.01
2013-9-30,70.0,58.0,48.2,58.0,52.5,47.0,96,84,49,30.05,29.92,5,1,7,0.00
2013-10-1,76.9,60.5,47.1,61.0,53.8,46.0,97,81,49,29.92,29.81,7,0,11,0.01
2013-10-2,78.6,63.9,51.3,64.0,58.2,50.0,97,84,59,29.94,29.81,6,1,14,0.01
2013-10-3,76.7,61.6,50.8,58.0,54.1,50.0,96,79,41,30.05,29.94,6,0,7,0.01
2013-10-4,73.8,59.9,49.7,66.0,56.5,48.0,97,89,72,30.03,29.97,3,0,6,0.00
2013-10-5,70.6,61.3,57.0,65.0,59.0,56.0,96,92,80,30.07,30.00,4,0,7,0.38
2013-10-6,61.8,59.8,57.4,60.0,58.2,55.0,96,94,90,30.13,30.05,5,1,7,0.04
2013-10-7,74.0,68.4,61.6,70.0,66.5,61.0,97,93,85,30.05,29.81,8,2,17,0.00
2013-10-8,66.9,58.2,48.4,62.0,48.7,43.0,92,73,44,30.30,29.86,6,1,12,0.00
2013-10-9,61.4,52.8,44.3,50.0,46.5,42.0,94,80,62,30.37,30.28,11,2,15,0.00
2013-10-10,64.0,56.5,48.9,58.0,52.8,47.0,93,88,79,30.27,30.07,7,2,10,0.00
2013-10-11,66.1,60.2,52.0,59.0,55.3,44.0,94,84,63,30.07,30.01,8,3,14,0.00
2013-10-12,67.9,58.2,52.2,58.0,53.1,46.0,89,83,65,30.30,30.06,9,3,17,0.00
2013-10-13,59.4,53.2,42.1,52.0,48.7,41.0,95,85,71,30.36,30.27,11,2,13,0.00
2013-10-14,61.6,48.0,36.4,52.0,44.4,35.0,97,88,64,30.36,30.22,2,0,5,0.00
2013-10-15,64.9,51.6,38.3,53.0,44.9,37.0,97,81,37,30.23,30.11,4,1,7,0.01
2013-10-16,64.5,56.0,49.2,58.0,53.4,48.0,96,91,80,30.11,29.87,4,1,8,0.01
2013-10-17,66.8,60.3,53.1,63.0,58.2,52.0,96,93,83,29.88,29.70,6,1,10,0.00
2013-10-18,68.8,60.2,46.1,62.0,53.9,45.0,96,81,52,29.89,29.61,11,2,14,0.04
2013-10-19,64.1,51.8,37.2,55.0,46.5,36.0,97,84,55,29.95,29.72,3,0,7,0.02
2013-10-20,63.1,53.6,38.0,57.0,43.5,35.0,95,73,35,30.00,29.66,10,1,17,0.01
2013-10-21,64.9,49.7,33.2,48.0,40.6,32.0,97,74,40,30.09,29.97,7,1,14,0.01
2013-10-22,66.7,54.5,40.6,56.0,49.0,39.0,96,83,60,29.97,29.67,11,1,13,0.00
2013-10-23,48.8,43.6,36.4,44.0,40.0,35.0,94,87,69,29.76,29.56,2,0,8,0.02
2013-10-24,53.6,42.9,36.2,39.0,31.7,26.0,92,68,35,29.88,29.63,9,1,18,0.00
2013-10-25,50.4,39.9,28.1,35.0,29.8,26.0,94,69,44,30.14,29.88,10,1,15,0.00
2013-10-26,54.1,43.0,26.0,42.0,33.8,25.0,96,73,41,30.15,29.85,16,3,25,0.00
2013-10-27,57.3,48.1,33.3,42.0,36.1,31.0,94,66,43,30.05,29.78,12,2,16,0.03
2013-10-28,58.8,43.4,27.2,41.0,34.4,26.0,96,74,48,30.29,30.05,10,1,17,0.01
2013-10-29,53.9,42.2,33.2,35.0,30.3,26.0,90,64,41,30.38,30.29,5,1,13,0.00
2013-10-30,58.7,45.5,33.2,49.0,40.4,31.0,94,83,64,30.32,30.15,12,1,12,0.00
2013-10-31,62.3,51.9,37.1,61.0,50.1,36.0,96,94,85,30.20,29.80,7,1,15,0.09
2013-11-1,66.1,62.5,59.1,64.0,59.8,56.0,95,91,83,29.79,29.50,19,4,25,0.06
2013-11-2,64.6,56.8,51.7,56.0,51.5,47.0,93,83,63,29.68,29.56,4,0,8,0.00
2013-11-3,53.5,44.0,34.0,48.0,35.7,19.0,91,73,47,30.35,29.68,8,2,14,0.00
2013-11-4,43.0,35.4,27.3,28.0,23.0,19.0,89,62,45,30.65,30.36,10,3,13,0.00
2013-11-5,49.6,37.5,27.1,37.0,31.4,25.0,93,80,56,30.65,30.48,4,0,7,0.00
2013-11-6,58.3,47.5,33.2,53.0,44.0,32.0,95,88,70,30.48,30.04,14,1,14,0.00
2013-11-7,62.0,54.4,37.5,60.0,52.5,35.0,96,93,85,30.04,29.65,12,3,17,0.64
2013-11-8,49.0,39.1,30.2,37.0,30.2,24.0,96,73,47,30.10,29.81,14,2,19,0.01
2013-11-9,47.8,38.0,26.7,39.0,28.5,23.0,92,71,43,30.20,30.00,9,1,17,0.00
2013-11-10,57.5,48.9,41.9,44.0,40.5,35.0,91,73,58,29.99,29.69,8,2,16,0.04
2013-11-11,52.0,46.2,39.1,42.0,33.4,28.0,74,62,44,30.09,29.88,8,3,19,0.00
2013-11-12,51.7,37.4,28.9,40.0,28.2,17.0,93,70,58,30.14,29.84,12,3,21,0.06
2013-11-13,37.8,29.5,23.9,17.0,15.1,12.0,73,56,37,30.25,30.14,9,2,16,0.01
2013-11-14,48.3,40.8,28.4,33.0,25.3,16.0,79,55,34,30.18,30.04,8,2,15,0.00
2013-11-15,56.8,43.8,29.7,44.0,35.5,27.0,94,75,32,30.19,30.12,7,1,13,0.00
2013-11-16,60.4,45.3,34.1,46.0,38.6,33.0,96,80,45,30.28,30.17,7,1,11,0.00
2013-11-17,59.6,49.8,33.8,59.0,48.3,33.0,96,94,86,30.26,29.81,8,1,12,0.27
2013-11-18,62.5,57.4,50.0,60.0,49.8,34.0,97,77,50,29.80,29.54,13,4,24,0.25
2013-11-19,49.0,41.4,32.6,36.0,25.7,22.0,68,54,40,30.23,29.64,18,4,20,0.00
2013-11-20,40.9,31.5,22.9,22.0,17.1,11.0,88,58,30,30.57,30.24,14,2,15,0.00
2013-11-21,47.0,34.0,20.5,34.0,25.0,16.0,90,72,32,30.58,30.36,6,0,10,0.00
2013-11-22,52.3,46.3,38.0,51.0,44.1,34.0,95,92,83,30.35,29.80,10,1,16,0.10
2013-11-23,50.1,41.8,30.7,49.0,29.1,16.0,95,63,34,29.87,29.77,12,4,27,0.00
2013-11-24,30.4,24.5,22.1,15.0,4.5,-5.0,57,43,25,30.18,29.80,26,7,37,0.00
2013-11-25,36.0,26.2,18.2,27.0,8.6,-2.0,74,49,29,30.36,30.19,11,3,19,0.00
2013-11-26,48.6,39.7,35.9,47.0,29.8,19.0,95,69,49,30.29,29.94,9,2,22,0.25
2013-11-27,60.4,51.7,36.6,59.0,50.2,33.0,96,94,86,29.93,29.19,16,6,26,1.70
2013-11-28,37.1,31.0,23.4,32.0,17.8,9.0,84,59,38,30.42,29.51,16,4,27,0.00
2013-11-29,36.1,28.5,21.5,20.0,17.2,14.0,78,64,48,30.68,30.42,6,1,13,0.00
2013-11-30,34.3,25.7,14.8,26.0,18.6,10.0,88,75,59,30.73,30.39,6,1,11,0.00
2013-12-1,49.7,44.8,29.5,48.0,41.5,26.0,95,88,77,30.37,29.95,9,2,13,0.23
2013-12-2,43.5,37.8,32.5,41.0,36.5,31.0,96,95,89,29.96,29.86,5,1,7,0.00
2013-12-3,51.2,39.3,32.4,40.0,34.3,31.0,96,84,53,29.93,29.79,9,1,12,0.00
2013-12-4,49.7,36.0,27.5,36.0,31.2,26.0,95,84,54,30.15,29.93,4,0,7,0.01
2013-12-5,54.3,47.3,32.2,53.0,46.0,31.0,96,95,94,30.14,29.91,5,1,12,0.01
2013-12-6,55.9,48.8,37.9,55.0,47.6,36.0,96,95,92,30.06,29.84,7,2,14,0.46
2013-12-7,40.4,34.9,29.2,37.0,30.3,23.0,95,84,65,30.43,30.01,10,2,15,0.29
2013-12-8,31.5,29.0,23.5,24.0,21.0,18.0,89,73,59,30.55,30.41,8,2,12,0.00
2013-12-9,42.5,35.7,28.1,41.0,34.4,25.0,96,94,82,30.41,29.86,9,4,15,0.12
2013-12-10,33.6,31.0,25.5,32.0,29.8,24.0,96,95,94,30.00,29.76,5,0,8,0.05
2013-12-11,32.0,26.7,21.8,26.0,22.3,20.0,94,84,72,30.23,30.01,11,2,13,0.08
2013-12-12,27.2,20.6,10.5,20.0,11.0,5.0,87,68,44,30.25,30.07,9,2,16,0.00
2013-12-13,31.8,24.2,15.9,18.0,13.0,8.0,85,63,49,30.30,30.01,14,3,26,0.00
2013-12-14,32.5,20.6,14.9,31.0,14.7,6.0,95,78,60,30.52,30.00,14,5,21,0.00
2013-12-15,38.4,33.3,27.5,37.0,31.1,25.0,95,91,82,29.97,29.34,15,4,23,0.86
2013-12-16,30.7,26.4,14.3,24.0,15.0,9.0,87,63,43,30.18,29.73,9,2,16,0.00
2013-12-17,25.0,18.2,8.3,24.0,15.8,6.0,94,90,83,30.22,29.85,10,3,13,0.00
2013-12-18,34.4,27.3,22.1,23.0,21.1,20.0,92,78,59,30.09,29.79,11,3,21,0.01
2013-12-19,45.6,35.5,24.1,34.0,27.1,19.0,82,72,55,30.11,29.95,13,3,23,0.04
2013-12-20,50.8,40.6,29.3,44.0,35.8,28.0,94,84,64,30.08,29.93,8,2,17,0.00
2013-12-21,55.1,50.2,44.5,51.0,47.8,43.0,95,91,82,29.97,29.88,10,2,16,0.00
2013-12-22,60.2,56.0,51.4,56.0,54.1,50.0,96,93,84,29.94,29.81,14,4,29,0.01
2013-12-23,58.7,43.9,37.6,56.0,42.4,36.0,96,94,89,30.02,29.86,8,2,16,0.69
2013-12-24,40.1,34.1,28.1,39.0,25.8,18.0,94,73,52,30.19,29.98,10,3,14,0.02
2013-12-25,27.9,21.7,17.3,16.0,8.6,5.0,78,58,42,30.49,30.19,13,3,21,0.00
2013-12-26,37.5,29.6,21.1,35.0,25.9,16.0,94,86,79,30.42,30.04,7,1,13,0.05
2013-12-27,38.4,28.5,19.1,26.0,22.3,18.0,94,79,48,30.27,30.18,7,1,13,0.00
2013-12-28,48.8,38.2,26.8,36.0,29.4,23.0,91,72,45,30.21,29.99,11,2,24,0.00
2013-12-29,45.6,41.0,32.8,44.0,38.2,30.0,95,90,78,30.00,29.29,13,2,21,1.27
2013-12-30,42.8,33.4,19.7,38.0,26.2,11.0,95,77,51,30.10,29.51,16,3,22,0.00
2013-12-31,26.9,20.2,15.9,17.0,12.7,10.0,91,74,51,30.17,30.01,8,1,15,0.00
2014-1-1,29.9,23.6,14.4,19.0,12.6,8.0,88,64,41,30.35,30.18,10,2,13,0.00
2014-1-2,29.0,22.6,9.7,27.0,20.3,8.0,94,91,77,30.27,29.65,19,8,25,0.00